Regional Weather Roundup
Issued by NWS Grand Forks, ND

Home | Current Version | Previous Version | Graphics & Text | Print | Product List | Glossary On
Versions: 1 2 3 4 5 6 7 8 9 10 11 12 13 14 15 16 17 18 19 20 21 22 23 24 25 26 27 28 29 30 31 32 33 34 35 36 37 38 39 40 41 42 43 44 45 46 47 48 49 50
000
ASUS43 KFGF 241810
RWRFGF
PRAIRIE TO PINES  WEATHER ROUNDUP
NATIONAL WEATHER SERVICE EASTERN NORTH DAKOTA/GRAND FORKS ND
100 PM CDT THU APR 24 2014

 **SATELLITE DATA USED TO AUGMENT SKY COVER AT AUTOMATED STATIONS**
 *****  WEATHER ACROSS EASTERN NORTH DAKOTA  *****

CITY           SKY/WX    TMP DP  RH WIND       PRES   REMARKS
GRAND FORKS    CLOUDY    42  40  92 SE10      29.72S
6HR MIN TEMP:  39; 6HR MAX TEMP:  42; 6HR PCP:  0.01;

GRAND FRKS AFB CLOUDY    42  42  99 S7        29.73F
GRAND FRKS NWS   N/A     41 N/A N/A SE7         N/A
DEVILS LAKE    CLOUDY    45  37  76 SE5       29.70S
6HR MIN TEMP:  37; 6HR MAX TEMP:  45;

FARGO          CLOUDY    43  41  93 S7        29.71F FOG
WAHPETON ARPT  MOCLDY    41  39  93 SE7       29.71R
$$

 ***** WEATHER ACROSS CENTRAL AND WESTERN NORTH DAKOTA  *****

CITY           SKY/WX    TMP DP  RH WIND       PRES   REMARKS
BISMARCK       MOSUNNY   59  22  24 W14G26    29.72F
6HR MIN TEMP:  36; 6HR MAX TEMP:  62;

MINOT          FAIR      56  35  45 NW14      29.67F
6HR MIN TEMP:  38; 6HR MAX TEMP:  57;

JAMESTOWN      PTSUNNY   58  40  51 W12       29.68F
6HR MIN TEMP:  36; 6HR MAX TEMP:  58;

MINOT AFB      PTSUNNY   53  38  58 W16G22    29.67F
GARRISON         N/A     57  27  31 W24G31    29.69F
WILLISTON      MOSUNNY   56  36  47 W10G24    29.74S
6HR MIN TEMP:  35; 6HR MAX TEMP:  56;

DICKINSON      MOSUNNY   55  19  24 NW21G36   29.73F
6HR MIN TEMP:  34; 6HR MAX TEMP:  58;

HETTINGER      SUNNY     57  21  24 W26G40    29.77F
6HR MIN TEMP:  28; 6HR MAX TEMP:  58;

$$

 *****  OTHER AIRPORT OBSERVATIONS IN OUR AREA  *****

CITY           SKY/WX    TMP DP  RH WIND       PRES   REMARKS
WALHALLA         N/A     41  41 100 S7        29.73F FOG
GRAFTON AIRPOR CLOUDY    41  41 100 SE10      29.73F FOG
VALLEY CITY AR MOCLDY    48  48 100 SW6       29.70F
CANDO          CLOUDY    43  41  93 E7        29.70F
CAVALIER APRT  CLOUDY    41  39  93 S8        29.74S FOG
GWINNER        MOCLDY    52  46  82 W7        29.71F
SHEYENNE NWR     N/A     45  45  99 S2        29.95S
ROLLA          CLOUDY    41  41 100 S7        29.69F FOG
 ***** THE ABOVE OBSERVATIONS ARE NON NWS ARE NOT QUALITY
       CONTROLLED AND MAY MIS-REPORT RAIN FOR SNOW...
$$

  *****  WEATHER ACROSS NORTHERN MINNESOTA  *****

CITY           SKY/WX    TMP DP  RH WIND       PRES   REMARKS
FLAG ISLAND    DRIZZLE   37  36  93 E12       29.81F
WARROAD        MIX PCPN  39  36  87 E7        29.80F
ROSEAU         LGT RAIN  39  34  81 SE9       29.78F
HALLOCK        DRIZZLE   41  39  93 SE10      29.76S
THF RVR FALLS  CLOUDY    37  34  87 SE9       29.76F
6HR MIN TEMP:  37; 6HR MAX TEMP:  39; 6HR PCP:  0.17;

BAUDETTE       LGT RAIN  39  37  92 SE7       29.81F FOG
6HR MIN TEMP:  37; 6HR MAX TEMP:  39; 6HR PCP:  0.12;

WASKISH        DRIZZLE   37  37 100 E9        29.79F
CROOKSTON      MIX PCPN  39  39 100 SE13      29.74F
$$
  *****  WEATHER ACROSS CENTRAL AND WEST MINNESOTA  *****

CITY           SKY/WX    TMP DP  RH WIND       PRES   REMARKS
FOSSTON        RAIN      37  36  93 SE6       29.75F
BEMIDJI        LGT RAIN  37  37  98 E7        29.76F
PARK RAPIDS    LGT RAIN  37  36  96 SE3       29.75F FOG
6HR MIN TEMP:  37; 6HR MAX TEMP:  39; 6HR PCP:  0.16;

ELBOW LAKE     LGT RAIN  40  39  97 E13       29.70F
6HR MIN TEMP:  40; 6HR MAX TEMP:  41; 6HR PCP:  0.47;

WADENA         RAIN      37  36  93 E3        29.74F
DETROIT LAKES  LGT RAIN  36  36 100 SE7       29.75F
MOORHEAD       LGT RAIN  43  43 100 SE14      29.69F
FERGUS FALLS   LGT RAIN  39  37  93 E8        29.69F
MORRIS MN      DRIZZLE   43  41  93 E7        29.69F
STAPLES        HVY RAIN  37  36  93 SE3       29.74F
$$
  *****  WEATHER ELSEWHERE ACROSS MINNESOTA  *****

CITY           SKY/WX    TMP DP  RH WIND       PRES   REMARKS
DULUTH         LGT SNOW  33  31  92 E21       29.81F VSB 3/4 WCI  21
6HR MIN TEMP:  33; 6HR MAX TEMP:  36; 6HR PCP:  0.17;

INTRNTL FALLS  LGT RAIN  38  36  92 SE15G21   29.83F
6HR MIN TEMP:  38; 6HR MAX TEMP:  39;

ELY            FLURRIES  36  34  93 E17G24    29.87F
CLOQUET        LGT SNOW  34  34 100 E10       29.80F
WHEATON        PTSUNNY   45  45 100 SE3       29.74R
BRAINERD       LGT RAIN  42  36  79 SE7       29.75F
6HR MIN TEMP:  42; 6HR MAX TEMP:  43; 6HR PCP:  0.02;

HIBBING        LGT RAIN  37  34  89 E13       29.81F
6HR MIN TEMP:  36; 6HR MAX TEMP:  38; 6HR PCP: TRACE;

ALEXANDRIA     RAIN      39  35  86 CALM      29.73F FOG
6HR MIN TEMP:  39; 6HR MAX TEMP:  41; 6HR PCP:  0.35;

SAINT CLOUD    LGT RAIN  42  38  85 E5        29.73F
6HR MIN TEMP:  41; 6HR MAX TEMP:  43; 6HR PCP:  0.16;

MINNEAPOLIS    LGT RAIN  41  41 100 E8        29.72F FOG
6HR MIN TEMP:  40; 6HR MAX TEMP:  42; 6HR PCP:  0.68;

$$

  *****  WEATHER ACROSS SOUTH DAKOTA  *****

CITY           SKY/WX    TMP DP  RH WIND       PRES   REMARKS
SIOUX FALLS    PTSUNNY   57  44  62 N20G25    29.73S
6HR MIN TEMP:  46; 6HR MAX TEMP:  57; 6HR PCP:  0.01;

BROOKINGS      NOT AVBL
WATERTOWN      FAIR      50  44  80 NW5       29.72R
6HR MIN TEMP:  39; 6HR MAX TEMP:  50; 6HR PCP:  0.13;

HURON          SUNNY     67  29  24 NW18G28   29.72F
6HR MIN TEMP:  43; 6HR MAX TEMP:  67;

SISSETON         N/A     46  43  89 CALM      29.71S
ABERDEEN       SUNNY     61  36  39 NW14      29.71F
6HR MIN TEMP:  36; 6HR MAX TEMP:  61;

MITCHELL       SUNNY     68  28  22 NW20G28   29.73F
PIERRE         SUNNY     64  28  25 NW25G33   29.78F
6HR MIN TEMP:  42; 6HR MAX TEMP:  64;

MOBRIDGE       SUNNY     62  25  24 NW22      29.72F
RAPID CITY     SUNNY     57  28  33 N13       29.85S
6HR MIN TEMP:  33; 6HR MAX TEMP:  58;

$$

  *****  SOME WEATHER IN NEARBY STATES *****

CITY           SKY/WX    TMP DP  RH WIND       PRES   REMARKS
GLASGOW MT     MOSUNNY   55  30  38 W10       29.77S
6HR MIN TEMP:  31; 6HR MAX TEMP:  55;

GREAT FALLS MT CLOUDY    48  31  51 SW13      29.75F
6HR MIN TEMP:  39; 6HR MAX TEMP:  49;

CHEYENNE WY    MOSUNNY   52  13  21 NW15G25   29.96F
6HR MIN TEMP:  27; 6HR MAX TEMP:  52;

SCOTTSBLUFF NE SUNNY     61  15  16 W21G28    29.92F
6HR MIN TEMP:  29; 6HR MAX TEMP:  62;

OMAHA NE       CLOUDY    57  50  77 NW10      29.73R
6HR MIN TEMP:  49; 6HR MAX TEMP:  57; 6HR PCP:  0.11;

DES MOINES IA  CLOUDY    56  53  90 W8        29.66S
6HR MIN TEMP:  51; 6HR MAX TEMP:  57; 6HR PCP:  0.22;

DAVENPORT IA   LGT RAIN  58  42  55 S14       29.78R
6HR MIN TEMP:  46; 6HR MAX TEMP:  63; 6HR PCP:  0.03;

CHICAGO IL     CLOUDY    63  35  35 S18G29    29.87F
6HR MIN TEMP:  42; 6HR MAX TEMP:  64;

EAU CLAIRE WI  RAIN      43  41  93 SE12      29.74F FOG
6HR MIN TEMP:  38; 6HR MAX TEMP:  43; 6HR PCP:  0.48;

LA CROSSE WI   LGT RAIN  44  40  85 SE8       29.73F FOG
6HR MIN TEMP:  40; 6HR MAX TEMP:  44; 6HR PCP:  0.90;

$$

  *****  SOME NATIONAL WEATHER *****

CITY           SKY/WX    TMP DP  RH WIND       PRES   REMARKS
LA GUARDIA NY  MOSUNNY   57  14  18 NW21G29   29.87F
6HR MIN TEMP:  44; 6HR MAX TEMP:  57;

RALEIGH NC     PTSUNNY   66  32  28 W7        30.08F
6HR MIN TEMP:  48; 6HR MAX TEMP:  66;

ATLANTA GA     MOSUNNY   76  45  33 VRB5      30.00F
6HR MIN TEMP:  54; 6HR MAX TEMP:  76;

NEW ORLEANS LA PTSUNNY   81  66  60 S12       29.95F
6HR MIN TEMP:  64; 6HR MAX TEMP:  81;

OKLAHOMA CITY  FAIR      73  44  35 NW33G41   29.81R
6HR MIN TEMP:  61; 6HR MAX TEMP:  73;

ALBUQUERQUE NM MOSUNNY   61   9  12 CALM      30.16F
6HR MIN TEMP:  46; 6HR MAX TEMP:  61;

SALT LAKE CITY PTSUNNY   60  20  21 S20       30.02F
6HR MIN TEMP:  41; 6HR MAX TEMP:  60;

LOS ANGELES CA MOSUNNY   71  45  39 VRB3      29.99F
6HR MIN TEMP:  56; 6HR MAX TEMP:  71;




USA.gov is the U.S. government's official web portal to all federal, state and local government web resources and services.